Duchifat 3
1 44854U 19089C   25090.29972427  .00056041  00000-0  13957-2 0  9993
2 44854  36.9458  79.8346 0004678 292.5603  67.4656 15.39210317292156
TO-108
1 44881U 19093C   25090.84423377  .00002085  00000-0  24794-3 0  9995
2 44881  97.7960 167.9509 0015278 100.1367 260.1573 14.85378104285722
FloripaSat 1
1 44885U 19093G   25090.81211192  .00009197  00000-0  79575-3 0  9994
2 44885  97.8165 178.3256 0011658  81.7120 278.5423 14.97337665286300
RS-44
1 44909U 19096E   25090.58327433  .00000016  00000-0  12242-4 0  9994
2 44909  82.5163 273.7929 0218489  99.2343 263.3540 12.79739801245735
UPMSat 2
1 46276U 20061E   25090.17580106  .00060666  00000-0  78490-3 0  9993
2 46276  97.2516 162.6758 0001851 154.0457 206.0893 15.58726009254465
SALSAT
1 46495U 20068K   25090.47270318  .00014576  00000-0  65335-3 0  9990
2 46495  97.8560  65.3547 0013553  52.7449 307.5019 15.21260983247862
CubeSX-Sirius-HSE
1 47951U 21022V   25090.86732214  .00150811  00000-0  15526-2 0  9999
2 47951  97.4253   0.0663 0008777 154.0907 206.0793 15.64321426222847
CubeSX-HSE
1 47952U 21022W   25090.83120082  .00153836  00000-0  15488-2 0  9998
2 47952  97.4255   0.2477 0008966 149.3427 210.8358 15.64876344222854
GRBAlpha
1 47959U 21022AD  25090.79957944  .00157846  00000-0  16091-2 0  9991
2 47959  97.4246   0.3506 0008679 153.6682 206.5020 15.64550564221677
Orbicraft-Zorkiy
1 47960U 21022AE  25090.71957083  .00622634  15652-3  19042-2 0  9992
2 47960  97.4156   4.4570 0010023 143.4633 216.7326 15.91836431222598
TUBIN
1 48900U 21059X   25090.80692625  .00062482  00000-0  99455-3 0  9999
2 48900  97.6711 254.7545 0003989 149.2624 210.8862 15.53069815209183
LEDSAT
1 49069U 21073D   25090.78449649  .00065635  00000-0  11347-2 0  9991
2 49069  97.3942 169.9033 0010299 328.8915  31.1726 15.50688832200583
CUTE
1 49263U 21088D   25090.69204405  .00020662  00000-0  45892-3 0  9996
2 49263  97.4556 165.0595 0010279 134.9761 225.2322 15.43670407193630
TeikyoSat 4
1 49396U 21102B   25090.85355487  .00004275  00000-0  28740-3 0  9990
2 49396  97.4191 131.7831 0012927  20.0139 340.1593 15.07210183186046
Z-Sat
1 49399U 21102E   25090.82769853  .00006581  00000-0  36904-3 0  9999
2 49399  97.3887 134.4412 0017763 351.3741   8.7183 15.13567251186429
KOSEN 1
1 49402U 21102H   25090.67886386  .00011427  00000-0  54795-3 0  9991
2 49402  97.3790 137.2059 0015087 327.6332  32.3976 15.18959046186676
HO-113
1 50466U 21131B   25090.82684992  .00001142  00000-0  37150-3 0  9990
2 50466  98.5087 180.5359 0003793   2.2558 357.8647 14.40681098171409
IRIS-A
1 51044U 22002BN  25090.73502041  .00163132  00000-0  13465-2 0  9995
2 51044  97.3318 167.4439 0001323 131.2318 228.9058 15.69821763178838
Foresail-1
1 52766U 22057AL  25090.66747308  .00142333  00000-0  12762-2 0  9995
2 52766  97.6027 235.4718 0005481 202.9298 157.1718 15.67840963158855
SNUGLITE 2
1 52899U 22065F   25090.39169633  .00002636  00000-0  52414-3 0  9990
2 52899  98.1564 233.1027 0006940 341.2144  18.8801 14.62931407146222
IO-117
1 53106U 22080B   25051.21822557 -.00000003  00000-0  00000+0 0  9995
2 53106  70.1434 106.3440 0008542  48.0089 312.1297  6.42557744 61200
UmKA 1 (RS40S)
1 57172U 23091G   25090.85378274  .00008941  00000-0  49203-3 0  9990
2 57172  97.5659 146.6200 0014353 209.7735 150.2681 15.14195889 96923
CubeBel-2 (EU11S)
1 57175U 23091K   25090.85272517  .00013950  00000-0  69828-3 0  9997
2 57175  97.5658 147.3772 0012260 218.3605 141.6758 15.17451639 96979
VERONIKA
1 58261U 23174F   25090.80345829  .00096591  00000-0  15287-2 0  9999
2 58261  97.4181 173.7179 0006537 279.4316  80.6197 15.53080577 77794
KAFASAT
1 58317U 23174BP  25090.82109022  .04373634  24396-5  20186-2 0  9999
2 58317  97.3895 179.0891 0012711 263.5380  96.4462 16.21637813 78173
ENSO
1 58470U 23185J   25090.80518052  .00058029  00000-0  11295-2 0  9992
2 58470  97.3796 164.0913 0006565 327.7525  32.3323 15.47359498 74219
EIRSAT-1
1 58472U 23185L   25090.81359825  .00084992  00000-0  13356-2 0  9994
2 58472  97.3772 165.1039 0005402 322.4458  37.6418 15.53329559 74284
SONATE-2
1 59112U 24043Q   25090.84619547  .00026276  00000-0  83343-3 0  9998
2 59112  97.5034 220.8161 0010990   4.7304 355.4040 15.32613673 59647
MO-122
1 60209U 24125G   25090.02547576  .00024533  00000-0  76873-3 0  9994
2 60209  97.2882 302.5409 0020657  34.2409 326.0161 15.32861103 41138
GRBBeta
1 60237U 24128C   25090.18057403  .00007118  00000-0  54735-3 0  9993
2 60237  61.9932 324.8756 0045262  42.3019 318.1547 15.01761729 39621
Curium One
1 60242U 24128H   25090.38741441  .00011836  00000-0  85519-3 0  9999
2 60242  61.9833 323.3736 0045017  37.9615 322.4635 15.03644089 39671
ROBUSTA-3A
1 60243U 24128J   25090.83565559  .00011939  00000-0  87210-3 0  9998
2 60243  61.9900 322.4164 0043412  35.7725 324.6260 15.03282241 39730
CatSat
1 60246U 24125J   25090.56035503  .00013236  00000-0  46503-3 0  9991
2 60246  97.2662 303.0186 0043483 345.5772  14.4223 15.28587664 39288
HYPERVIEW-1G (RS66S)
1 61772U 24199AP  25090.87323913  .00029183  00000-0  94675-3 0  9997
2 61772  97.3641 319.9989 0016396  84.2608 276.0503 15.31793309 66271
AO-123
1 61781U 24199AY  25090.89277306  .00011427  00000-0  43121-3 0  9995
2 61781  97.3651 319.5337 0018041  85.6458 274.6842 15.27040139 66240
ZIMSAT 2
1 61783U 24199BA  25090.84909721  .00043987  00000-0  13012-2 0  9996
2 61783  97.3633 320.1745 0017037  83.1163 277.2018 15.34632199 69432
POEM 4 (BGS ARPIT)
1 62461U 24253C   25090.58876931  .01578931  11527-4  76780-3 0  9993
2 62461  55.2060 177.9026 0005290 339.9080  99.4207 16.20497041 14414
HADES-R (SO-124)
1 62690U 25009CK  25090.20169487  .00043605  00000-0  18560-2 0  9992
2 62690  97.4132 171.5692 0001683 311.1123  48.9968 15.22854485 11417
HYDRA-T
1 62692U 25009CM  25090.45919580  .00044277  00000-0  18745-2 0  9999
2 62692  97.4127 171.8350 0001647 298.9469  61.1603 15.23032663 11456
Fram2Ham
1 90000U 25090A   25091.17708220 -.00012090  00000-0 -25444-3 0    64
2 90000  90.0015 318.6050 0001128  47.8434 312.3114 15.45593922    34
